Regional Weather Roundup
Issued by NWS Sioux Falls, SD

Home | Current Version | Previous Version | Text Only | Print | Product List | Glossary On
Versions: 1 2 3 4 5 6 7 8 9 10 11 12 13 14 15 16 17 18 19 20 21 22 23 24 25 26 27 28 29 30 31 32 33 34 35 36 37 38 39 40 41 42 43 44 45 46 47 48 49 50
000
ASUS43 KFSD 210610
RWRFSD

WEATHER ROUNDUP FOR SE SOUTH DAKOTA/SW MINNESOTA/NW IOWA
NATIONAL WEATHER SERVICE SIOUX FALLS SD
100 AM CDT SAT OCT 21 2017

NOTE: "FAIR" INDICATES FEW OR NO CLOUDS BELOW 12,000 FEET WITH NO
SIGNIFICANT WEATHER AND OR OBSTRUCTIONS TO VISIBILITY.


SDZ038>040-050-052>070-210700-
SOUTHEAST SOUTH DAKOTA

CITY           SKY/WX    TMP DP  RH WIND       PRES   REMARKS
BROOKINGS      MOCLDY    66  57  72 S28G36    29.51F
CHAMBERLAIN    CLEAR     69  58  68 S23G35    29.39F
6HR MIN TEMP:  67; 6HR MAX TEMP:  72;

HURON          MOCLDY    68  58  70 S17G26    29.42S
6HR MIN TEMP:  68; 6HR MAX TEMP:  72;

MADISON        FAIR      64  59  82 S25G36    29.52S
MITCHELL       PTCLDY    69  58  67 S21G32    29.45F
6HR MIN TEMP:  69; 6HR MAX TEMP:  74;

SIOUX FALLS    CLOUDY    68  58  70 S22G32    29.54F
6HR MIN TEMP:  68; 6HR MAX TEMP:  72;

WINNER         FAIR      68  56  65 S23G35    29.40S
YANKTON        CLOUDY    67  58  72 SE14G23   29.54F
$$

MNZ071-072-080-081-089-090-097-098-210700-
SOUTHWEST MINNESOTA

CITY           SKY/WX    TMP DP  RH WIND       PRES   REMARKS
FAIRMONT       CLOUDY    63  55  75 S23G30    29.70S
JACKSON        MOCLDY    61  54  77 S21G26    29.69S
LUVERNE        PTCLDY    63  54  72 S16G26    29.60S
MARSHALL       CLOUDY    66  57  72 S25G36    29.54F
6HR MIN TEMP:  66; 6HR MAX TEMP:  72;

MONTEVIDEO     CLOUDY    66  57  72 S13G22    29.55F
PIPESTONE      CLOUDY    64  55  72 S23G30    29.57F
REDWOOD FALLS  PTCLDY    66  55  67 S20G31    29.60F
TRACY          CLOUDY    66  58  75 S18G28    29.58F
WORTHINGTON    PTCLDY    63  56  78 S20G31    29.64F
$$

IAZ001>003-012>014-020>022-031-032-NEZ013-014-SDZ071-210700-
NORTHWEST IOWA

CITY           SKY/WX    TMP DP  RH WIND       PRES   REMARKS
CHEROKEE       PTCLDY    64  58  79 S17G26    29.66F
DENISON        CLOUDY    64  57  77 S20G29    29.71F
ESTHERVILLE    PTCLDY    61  56  83 S20G26    29.69F
LE MARS        CLOUDY    66  57  72 S23G32    29.61F
ORANGE CITY    MOCLDY    66  61  82 S22       29.62F
SHELDON        MOCLDY    64  57  77 S15G28    29.62S
SIOUX CITY     CLOUDY    67  58  72 S20G29    29.62F
6HR MIN TEMP:  67; 6HR MAX TEMP:  72;

SPENCER        PTCLDY    64  56  75 S22G29    29.67F
6HR MIN TEMP:  64; 6HR MAX TEMP:  69;

STORM LAKE     MOCLDY    64  57  77 S25G32    29.68F
$$

ABBREVIATIONS USED IN REMARKS
   TC - TEMPERATURE IN CELSIUS
  WCI - WIND CHILL INDEX
   HX - HEAT INDEX
  VSB - VISIBILITY




USA.gov is the U.S. government's official web portal to all federal, state and local government web resources and services.